Regional Weather Roundup
Issued by NWS

Home | Current Version | Previous Version | Graphics & Text | Print | Product List | Glossary On
Versions: 1 2 3 4 5 6 7 8 9 10 11 12 13 14 15 16 17 18 19 20 21 22 23 24 25 26 27 28 29 30 31 32 33 34 35 36 37 38 39 40 41 42 43 44 45 46 47 48 49 50
000
ASUS43 KMPX 260001
RWRMN
WEATHER ROUNDUP FOR MINNESOTA
NATIONAL WEATHER SERVICE TWIN CITIES/CHANHASSEN MN
700 PM CDT SUN SEP 25 2016


NOTE: "FAIR" INDICATES FEW OR NO CLOUDS BELOW 12,000 FEET WITH NO
SIGNIFICANT WEATHER AND/OR OBSTRUCTIONS TO VISIBILITY. N/A MEANS
CURRENT SKY AND/OR WEATHER CONDITIONS ARE NOT AVAILABLE.

MNZ060>063-068>070-260100-
   Twin Cities Metro

CITY           SKY/WX    TMP DP  RH WIND       PRES   REMARKS
TWIN CITIES    CLOUDY    61  50  67 W16G23    29.93R
6HR MIN TEMP:  60; 6HR MAX TEMP:  66; 6HR PCP:  0.02;

ST PAUL        CLOUDY    60  51  72 W14G20    29.93R
CRYSTAL        CLOUDY    61  48  62 W16G23    29.92R
BLAINE         CLOUDY    61  54  77 W9        29.92R
LAKEVILLE      CLOUDY    57  52  82 W12       29.95R
EDEN PRAIRIE   CLOUDY    61  49  64 W14G21    29.94R
6HR MIN TEMP:  60; 6HR MAX TEMP:  66; 6HR PCP:  0.01;

LAKEVILLE      CLOUDY    57  52  82 W12       29.95R
SOUTH ST PAUL  CLOUDY    60  51  71 W10G16    29.93R
LAKE ELMO      CLOUDY    59  54  82 W12G17    29.93R
$$
MNZ001>005-007-008-013>017-022>024-027-028-260100-
   Northwest Minnesota

CITY           SKY/WX    TMP DP  RH WIND       PRES   REMARKS
BEMIDJI        DRIZZLE   49  48  95 W17G26    29.83R
HALLOCK        RAIN      52  50  93 W22G30    29.85R
ROSEAU         LGT RAIN  52  46  82 W13G21    29.76R
THIEF RVR FALL LGT RAIN  50  48  93 W25G35    29.86R
CROOKSTON      HVY RAIN  50  48  93 NW24G37   29.91R
FOSSTON        LGT RAIN  48  46  93 W23G32    29.88R
DETROIT LAKES  LGT RAIN  52  45  76 NW15G23   29.95R
MOORHEAD       DRIZZLE   57  43  58 NW16      29.97R
PARK RAPIDS    CLOUDY    52  43  71 W22G39    29.89R
MAHNOMEN       CLOUDY    51  47  86 W18G29    29.91R
$$
MNZ006-009>011-018-025>026-260100-
   North Central Minnesota

CITY           SKY/WX    TMP DP  RH WIND       PRES   REMARKS
BAUDETTE       LGT RAIN  53  51  93 W12G24    29.70R FOG
FLAG ISLAND    LGT RAIN  54  52  94 NW22      29.66R
INTL FALLS     LGT RAIN  55  53  93 W8        29.68R
6HR MIN TEMP:  55; 6HR MAX TEMP:  68; 6HR PCP: TRACE;

WASKISH        LGT RAIN  54  52  94 W21G31    29.75R
BIG FORK       RAIN      54  52  94 SW8       29.76R
GRAND RAPIDS   CLOUDY    54  49  83 W12G25    29.82R
ORR            CLOUDY    54  50  87 SW6       29.70R
COOK           CLOUDY    57  52  82 W12G18    29.74R
WALKER         CLOUDY    50  48  93 W18       29.84R
$$
MNZ012-019>021-037-260100-
   Northeast Minnesota

CITY           SKY/WX    TMP DP  RH WIND       PRES   REMARKS
DULUTH         MOCLDY    57  53  86 W15       29.78S
6HR MIN TEMP:  57; 6HR MAX TEMP:  69; 6HR PCP: TRACE;

ELY            CLOUDY    57  52  82 SW9       29.73R
HIBBING        CLOUDY    54  51  90 SW8       29.76R
EVELETH        CLOUDY    55  53  92 SW10      29.77R
DULUTH HARBOR  CLOUDY    61  55  82 SW14G20   29.79R
TWO HARBORS    MOCLDY    61  55  82 W9        29.75S
SILVER BAY     CLOUDY    59  55  88 SW6       29.74S
GRAND MARAIS     N/A     59  58  96 W5        29.71S
G MARAIS ARPRT CLOUDY    55  50  82 SW6       29.74R
$$
MNZ029>031-032-039>041-046>048-054>057-064-260100-
   West Central Minnesota

CITY           SKY/WX    TMP DP  RH WIND       PRES   REMARKS
FERGUS FALLS   PTCLDY    55  45  67 N7        29.98R
MORRIS         PTCLDY    61  39  44 NW22G29   29.99R
ALEXANDRIA     MOCLDY    54  48  80 NW10      29.98R
ELBOW LAKE     FAIR      58  44  59 NW13      29.97R
WADENA         CLOUDY    54  43  66 NW20G35   29.93R
GLENWOOD       PTCLDY    55  46  71 W16G23    29.98R
BENSON         PTCLDY    61  37  41 NW21G28   29.99R
MADISON          N/A     64  39  39 NW15      30.03R
WILLMAR        FAIR      63  45  51 W13G23    29.99S
$$
MNZ033>034-036-042>043-049>051-058-059-260100-
   Central Minnesota

CITY           SKY/WX    TMP DP  RH WIND       PRES   REMARKS
ST CLOUD       PTCLDY    58  48  69 W15       29.93R
6HR MIN TEMP:  57; 6HR MAX TEMP:  63; 6HR PCP: TRACE;

SAUK CENTRE    LGT RAIN  55  46  71 NW17G24   29.97R
PAYNESVILLE    MOCLDY    58  46  63 W9G17     29.97R
AITKIN         CLOUDY    57  46  67 W8G17     29.84R
PINE RIVER     CLOUDY    54  46  76 W17G26    29.91R
BRAINERD       CLOUDY    56  46  69 W14G30    29.89R
STAPLES        CLOUDY    54  43  66 NW21G33   29.92R
LONG PRAIRIE   MOCLDY    54  43  66 W17G26    29.96R
LITTLE FALLS   MOCLDY    55  45  67 W18G29    29.92R
LITCHFIELD     MOCLDY    61  48  63 NW14G21   29.97R
BUFFALO        CLOUDY    59  48  65 W17G24    29.96R
MAPLE LAKE     CLOUDY    60  49  66 W14G24    29.95R
HUTCHINSON     CLOUDY    61  49  64 W12G18    29.99R
$$
MNZ037-044-045-052-053-260100-
   East Central Minnesota

CITY           SKY/WX    TMP DP  RH WIND       PRES   REMARKS
PRINCETON      MOCLDY    59  52  77 W16       29.91R
MORA           MOCLDY    55  50  82 W9G20     29.90R
CAMBRIDGE      CLOUDY    61  48  63 W9G16     29.89R
MOOSE LAKE     CLOUDY    55  50  82 W10G21    29.81R
HINCKLEY       LGT RAIN  55  54  94 W13G28    29.86R
CLOQUET        CLOUDY    55  52  88 W9        29.80R
MCGREGOR       MOCLDY    54  50  87 W8G21     29.84R
$$
MNZ071>073-080-081-089-090-097-098-260100-
   Southwest Minnesota

CITY           SKY/WX    TMP DP  RH WIND       PRES   REMARKS
MONTEVIDEO     PTCLDY    63  41  45 NW9G20    30.03R
GRANITE FALLS  PTCLDY    64  41  43 W17G28    30.03R
CANBY          PTCLDY    61  40  45 NW15      30.06R
MARSHALL       CLEAR     60  40  47 NW20G25   30.04R
REDWOOD FALLS  LGT RAIN  62  41  46 NW16G25   30.00R
OLIVIA         PTCLDY    59  45  58 W14G20    29.99R
PIPESTONE      PTCLDY    61  36  39 NW14G21   30.09R
WINDOM         CLEAR     61  39  44 W16G26    30.04R
WORTHINGTON    CLEAR     60  42  51 W17G23    30.07R
JACKSON        CLEAR     61  37  41 W17G23    30.05R
TRACY          PTCLDY    61  44  53 NW13G22   30.05R
$$
MNZ065>067-074>077-082>085-091>093-260100-
   South Central Minnesota

CITY           SKY/WX    TMP DP  RH WIND       PRES   REMARKS
ST JAMES       PTCLDY    61  48  63 W7        30.03R
FAIRMONT       PTCLDY    60  48  64 NW9       30.03S
GLENCOE        CLOUDY    61  51  69 W14       29.97R
FARIBAULT      CLOUDY    61  52  72 W13       29.98R
OWATONNA       CLOUDY    59  48  67 W16G24    29.99R
WASECA         CLOUDY    59  50  72 W12       30.01R
ALBERT LEA     CLOUDY    57  54  88 W7        30.01R
$$
MNZ078>079-086>088-094>096-260100-
   Southeast Minnesota

CITY           SKY/WX    TMP DP  RH WIND       PRES   REMARKS
ROCHESTER      CLOUDY    58  53  84 NW17G29   29.99R
6HR MIN TEMP:  57; 6HR MAX TEMP:  68; 6HR PCP:  0.01;

RED WING       CLOUDY    57  54  88 W8        29.93R
STANTON        CLOUDY    60  52  73 W12       29.95R
DODGE CENTER   CLOUDY    55  54  94 W10G16    29.98S
WINONA         CLOUDY    59  54  82 W9G20     29.95R
AUSTIN         CLOUDY    57  52  82 W8G17     30.00R
PRESTON        CLOUDY    56  52  85 W12G22    29.99R
$$
ABBREVIATIONS USED IN REMARKS
   TC - TEMPERATURES IN CELSIUS
  WCI - WIND CHILL INDEX
   HX - HEAT INDEX
  VSB - VISIBILITY
$$




USA.gov is the U.S. government's official web portal to all federal, state and local government web resources and services.